Location: Buchdorf
(48.7842°N, 10.8275°E)
Time: 20:05:36
(UTC+00:00)

N. Korean satellite - Pass Details

Date: 04 March 2021
Orbit: 452 x 499 km, 97.2° (Epoch: 15 April)

Event Time Altitude Azimuth Distance (km) Brightness Sun altitude
Rises 04:56:58 0° 11° (N) 2,523 10.4 -10.0°
Reaches altitude 10° 04:59:01 10° 10° (N) 1,649 9.4 -9.6°
Maximum altitude 05:02:33 75° 286° (WNW) 501 6.4 -9.0°
Drops below altitude 10° 05:06:07 10° 200° (SSW) 1,661 9.1 -8.4°
Sets 05:08:11 0° 198° (SSW) 2,544 10.0 -8.1°
